星链-33840 (STARLINK-33840)

导读

STARLINK-33840是美国太空探索技术公司SpaceX于2025年4月28日发射的星链低轨互联网通信卫星,隶属于第二代星链(Gen2)星座。它配备相控阵天线与激光星间链路,可为地面提供高速卫星互联网接入,支持手机直连、海事航空通信及应急通信等服务,是星链全球宽带组网建设的组成部分。

Basic Information
目录编号:
63682
目录名称:
STARLINK-33840
国际标识:
2025-085U
轨道中心:
EARTH
卫星名称:
星链-33840
卫星全名:
星链-33840 (STARLINK-33840)
卫星状态:
在轨 (已飞行495 天)
发射日期:
2025-04-28 UTC
国别 :
美国 (US)
星等 :
--
Orbit Information
数据来源 国际轨道数据 AOE轨道数据
星历时间 2026-09-05T06:48:49+0800
11小时前
查看轨道信息
2026-09-04T16:00:00+0800
1天前
查看轨道信息
半长轴 6861.178km 6861.144km
偏心率 0.0001545 0.00017
轨道倾角 43.001° 43.002°
近地点辐角 269.819° 275.838°
升交点赤经 98.707° 102.196°
平近点角 90.248° 285.891°
近地点 481.98km 481.84km
远地点 484.102km 484.174km
周期 94.267分钟 94.266分钟
每日圈数 15.275829 15.275941
Detailed Information
固有亮度:
5
最大亮度:
2.5
卫星平台:
Starlink V1.0
覆盖范围:
全球
运营商:
太空探索技术公司
运营商所在国:
美国
制造商(研发单位):
太空探索技术公司
制造商所在国:
美国
使用方式:
暂无
Satellite Introduction
Starlink 计划是 SpaceX 推出的全球卫星互联网项目,通过发射低轨道卫星,为全球尤其是偏远地区提供高速、低延迟的互联网服务。自 2019 年起,Starlink 已部署数千颗卫星,旨在缩小全球数字鸿沟,推动互联网普及。该项目还为军事、航空等行业提供通信支持,带来广泛经济效益。
2D Orbit Map
3D Orbit Map
Orbit Altitude Analysis Chart
Orbit Inclination Analysis Chart
Orbit Comprehensive Analysis Chart
View Comprehensive Chart
Conjunction Data List
Event ID Objects TCA Miss Dist (km) Collision Risk Probability Collision Risk Index (CRI) Action
CDM_260907-072306-368206-742621
2026-09-07T
07:23:10+0000
0.669 km
远距离
7.577076E-5 中风险 0.73
CDM_260907-085706-368206-742621
2026-09-07T
08:57:19+0000
2.243 km
极远距离
1.727768E-6 低风险 0.4
CDM_260907-054906-368206-742621
2026-09-07T
05:49:01+0000
2.412 km
极远距离
1.495645E-6 低风险 0.38
CDM_260905-092806-368206-488921
OBJECT P (64889)
2026-09-05T
09:28:59+0000
2.733 km
极远距离
1.400116E-6 低风险 0.38
CDM_260906-113805-187306-368222
2026-09-06T
11:38:39+0000
2.618 km
极远距离
1.384168E-6 低风险 0.38